EN

Hourly Weather Tooele

Today, 16 April, Friday

Time Temperature Precipitation Wind Pressure Humidity
00:00 +2°C° 0 mm 1 mps 614 mmHg 69%
01:00 +2°C° 0 mm 1 mps 614 mmHg 70%
02:00 +1°C° 0 mm 0 mps 614 mmHg 72%
03:00 0°C° 0 mm 0 mps 614 mmHg 74%
04:00 0°C° 0 mm 0 mps 614 mmHg 76%
05:00 0°C° 0 mm 0 mps 614 mmHg 79%
06:00 +1°C° 0 mm 0 mps 615 mmHg 75%
07:00 +2°C° 0 mm 0 mps 615 mmHg 71%
08:00 +2°C° 0 mm 0 mps 615 mmHg 67%
09:00 +4°C° 0.2 mm 1 mps 616 mmHg 62%
10:00 +4°C° 0.2 mm 2 mps 616 mmHg 58%
11:00 +5°C° 0.2 mm 2 mps 616 mmHg 53%
12:00 +5°C° 0.3 mm 3 mps 616 mmHg 53%
13:00 +5°C° 0.3 mm 3 mps 616 mmHg 53%
14:00 +5°C° 0.3 mm 3 mps 616 mmHg 53%
15:00 +5°C° 0 mm 3 mps 616 mmHg 51%
16:00 +5°C° 0 mm 3 mps 616 mmHg 48%
17:00 +7°C° 0 mm 3 mps 615 mmHg 45%
18:00 +5°C° 0 mm 3 mps 615 mmHg 50%
19:00 +5°C° 0 mm 2 mps 615 mmHg 55%
20:00 +4°C° 0 mm 2 mps 615 mmHg 60%
21:00 +3°C° 0 mm 2 mps 615 mmHg 61%
22:00 +2°C° 0 mm 2 mps 615 mmHg 61%
23:00 +2°C° 0 mm 2 mps 615 mmHg 62%

Tomorrow, 17 April, Saturday

Time Temperature Precipitation Wind Pressure Humidity
00:00 +3°C° 0 mm 1 mps 615 mmHg 62%
01:00 +2°C° 0 mm 1 mps 616 mmHg 62%
02:00 +2°C° 0 mm 1 mps 616 mmHg 63%
03:00 +2°C° 0 mm 1 mps 616 mmHg 63%
04:00 +2°C° 0 mm 1 mps 616 mmHg 63%
05:00 +1°C° 0 mm 1 mps 616 mmHg 64%
06:00 +1°C° 0 mm 2 mps 617 mmHg 58%
07:00 +2°C° 0 mm 2 mps 617 mmHg 53%
08:00 +2°C° 0 mm 3 mps 618 mmHg 48%
09:00 +4°C° 0 mm 3 mps 618 mmHg 43%
10:00 +5°C° 0 mm 4 mps 618 mmHg 37%
11:00 +6°C° 0 mm 4 mps 619 mmHg 32%
12:00 +7°C° 0 mm 4 mps 619 mmHg 30%
13:00 +7°C° 0 mm 5 mps 619 mmHg 29%
14:00 +8°C° 0 mm 5 mps 619 mmHg 28%
15:00 +8°C° 0 mm 5 mps 619 mmHg 28%
16:00 +8°C° 0 mm 4 mps 619 mmHg 28%
17:00 +8°C° 0 mm 4 mps 618 mmHg 29%
18:00 +7°C° 0 mm 4 mps 618 mmHg 34%
19:00 +5°C° 0 mm 3 mps 618 mmHg 40%
20:00 +5°C° 0 mm 2 mps 618 mmHg 45%
21:00 +5°C° 0 mm 2 mps 618 mmHg 46%
22:00 +4°C° 0 mm 2 mps 618 mmHg 46%
23:00 +5°C° 0 mm 1 mps 618 mmHg 46%

Day after tomorrow, 18 April, Sunday

Time Temperature Precipitation Wind Pressure Humidity
00:00 +4°C° 0 mm 1 mps 618 mmHg 45%
01:00 +4°C° 0 mm 1 mps 618 mmHg 43%
02:00 +4°C° 0 mm 1 mps 618 mmHg 42%
03:00 +3°C° 0 mm 1 mps 618 mmHg 43%
04:00 +3°C° 0 mm 1 mps 618 mmHg 44%
05:00 +2°C° 0 mm 0 mps 618 mmHg 45%
06:00 +4°C° 0 mm 1 mps 618 mmHg 42%
07:00 +6°C° 0 mm 1 mps 619 mmHg 39%
08:00 +7°C° 0 mm 1 mps 620 mmHg 35%
09:00 +9°C° 0 mm 1 mps 620 mmHg 34%
10:00 +9°C° 0 mm 2 mps 620 mmHg 32%
11:00 +10°C° 0 mm 2 mps 620 mmHg 30%
12:00 +12°C° 0 mm 2 mps 620 mmHg 29%
13:00 +12°C° 0 mm 3 mps 620 mmHg 28%
14:00 +13°C° 0 mm 3 mps 620 mmHg 27%
15:00 +12°C° 0 mm 3 mps 619 mmHg 28%
16:00 +12°C° 0 mm 3 mps 619 mmHg 28%
17:00 +13°C° 0 mm 2 mps 619 mmHg 28%
18:00 +12°C° 0 mm 2 mps 618 mmHg 32%
19:00 +9°C° 0 mm 2 mps 617 mmHg 35%
20:00 +8°C° 0 mm 2 mps 617 mmHg 38%
21:00 +8°C° 0 mm 2 mps 616 mmHg 38%
22:00 +8°C° 0 mm 2 mps 616 mmHg 38%
23:00 +7°C° 0 mm 2 mps 616 mmHg 39%

19 April, Monday

Time Temperature Precipitation Wind Pressure Humidity
00:00 +7°C° 0 mm 2 mps 616 mmHg 39%
01:00 +7°C° 0 mm 3 mps 615 mmHg 39%
02:00 +7°C° 0 mm 3 mps 615 mmHg 39%
03:00 +7°C° 0 mm 3 mps 615 mmHg 39%
04:00 +5°C° 0 mm 3 mps 614 mmHg 39%
05:00 +5°C° 0 mm 3 mps 614 mmHg 39%
06:00 +7°C° 0 mm 3 mps 615 mmHg 40%
07:00 +7°C° 0 mm 4 mps 615 mmHg 40%
08:00 +9°C° 0 mm 5 mps 616 mmHg 41%
09:00 +9°C° 0 mm 6 mps 616 mmHg 45%
10:00 +9°C° 0 mm 6 mps 617 mmHg 48%
11:00 +9°C° 0 mm 7 mps 617 mmHg 52%
12:00 +9°C° 0 mm 7 mps 617 mmHg 47%
13:00 +9°C° 0 mm 7 mps 617 mmHg 43%
14:00 +9°C° 0 mm 6 mps 618 mmHg 38%
15:00 +9°C° 0 mm 6 mps 617 mmHg 36%
16:00 +9°C° 0 mm 6 mps 617 mmHg 35%
17:00 +9°C° 0 mm 6 mps 617 mmHg 33%
18:00 +8°C° 0 mm 5 mps 617 mmHg 38%
19:00 +6°C° 0 mm 4 mps 617 mmHg 42%
20:00 +5°C° 0 mm 3 mps 617 mmHg 47%
21:00 +6°C° 0 mm 2 mps 617 mmHg 46%
22:00 +5°C° 0 mm 2 mps 617 mmHg 45%
23:00 +5°C° 0 mm 1 mps 617 mmHg 44%

20 April, Tuesday

Time Temperature Precipitation Wind Pressure Humidity
00:00 +5°C° 0 mm 1 mps 616 mmHg 43%
01:00 +4°C° 0 mm 0 mps 616 mmHg 42%
02:00 +3°C° 0 mm 0 mps 616 mmHg 41%
03:00 +3°C° 0 mm 0 mps 616 mmHg 42%
04:00 +4°C° 0 mm 1 mps 615 mmHg 42%
05:00 +4°C° 0 mm 1 mps 615 mmHg 43%
06:00 +5°C° 0 mm 1 mps 616 mmHg 40%
07:00 +7°C° 0 mm 1 mps 616 mmHg 38%
08:00 +8°C° 0 mm 1 mps 617 mmHg 35%
09:00 +9°C° 0 mm 1 mps 617 mmHg 34%
10:00 +11°C° 0 mm 1 mps 617 mmHg 33%
11:00 +12°C° 0 mm 1 mps 617 mmHg 32%
12:00 +13°C° 0 mm 1 mps 617 mmHg 30%
13:00 +14°C° 0 mm 2 mps 617 mmHg 29%
14:00 +15°C° 0 mm 2 mps 617 mmHg 28%
15:00 +14°C° 0 mm 2 mps 616 mmHg 29%
16:00 +13°C° 0 mm 3 mps 615 mmHg 30%
17:00 +13°C° 0 mm 3 mps 615 mmHg 31%
18:00 +13°C° 0 mm 2 mps 614 mmHg 36%
19:00 +12°C° 0 mm 2 mps 614 mmHg 41%
20:00 +11°C° 0 mm 1 mps 614 mmHg 46%
21:00 +10°C° 0.1 mm 1 mps 614 mmHg 52%
22:00 +9°C° 0.1 mm 2 mps 614 mmHg 59%
23:00 +8°C° 0.1 mm 2 mps 614 mmHg 66%

21 April, Wednesday

Time Temperature Precipitation Wind Pressure Humidity
00:00 +7°C° 0 mm 2 mps 613 mmHg 70%
01:00 +6°C° 0 mm 2 mps 613 mmHg 75%
02:00 +5°C° 0 mm 2 mps 612 mmHg 80%
03:00 +5°C° 0 mm 2 mps 612 mmHg 78%
04:00 +6°C° 0 mm 2 mps 612 mmHg 76%
05:00 +6°C° 0 mm 2 mps 612 mmHg 74%
06:00 +7°C° 0 mm 2 mps 612 mmHg 69%
07:00 +8°C° 0 mm 2 mps 612 mmHg 63%
08:00 +10°C° 0 mm 1 mps 613 mmHg 58%
09:00 +12°C° 0 mm 2 mps 613 mmHg 53%
10:00 +13°C° 0 mm 2 mps 613 mmHg 47%
11:00 +15°C° 0 mm 2 mps 613 mmHg 42%
12:00 +16°C° 0 mm 2 mps 613 mmHg 39%
13:00 +16°C° 0 mm 2 mps 613 mmHg 36%
14:00 +17°C° 0 mm 2 mps 612 mmHg 33%
15:00 +17°C° 0 mm 2 mps 612 mmHg 34%
16:00 +17°C° 0 mm 2 mps 611 mmHg 36%
17:00 +16°C° 0 mm 2 mps 611 mmHg 37%
18:00 +15°C° 0.1 mm 2 mps 610 mmHg 45%
19:00 +13°C° 0.1 mm 2 mps 610 mmHg 53%
20:00 +10°C° 0.1 mm 2 mps 610 mmHg 61%
21:00 +9°C° 1 mm 2 mps 610 mmHg 65%
22:00 +9°C° 1 mm 2 mps 610 mmHg 70%
23:00 +8°C° 1 mm 3 mps 610 mmHg 75%
Show more

We Need Your Consent

Meteoprog and our Service Providers may store and access personal data such as cookies, device identifiers or other similar technologies on your device and process such data to personalise content and ads, as well as provide social media features and to analyse the traffic.

  • Store and/or access information on your device

    Cookies, device identifiers or other information can be stored or accessed on your device for the purposes indicated above.

  • Personalised ads and content, ad and content measurement, audience insights, and products development

    Ads and content can be personalised based on a profile. More data can be added to better personalise ads and content. Ad and content performance can be measured. Insights about the audience who saw the ads and content can be derived. Such data can be used to develop or improve user’s experience, systems and software.

By clicking ‘I Agree’ you will allow the use of indicated cookies, device identifiers, web beacons or other similar technologies. Your settings can be changed in the browser on your device.

For certain purposes, legitimate interests may be relied on, rather than consent. You can read more about this in our Privacy and Cookie Policy.